Regional Weather Roundup
Issued by NWS Little Rock, AR

Home | Current Version | Previous Version | Text Only | Print | Product List | Glossary On
Versions: 1 2 3 4 5 6 7 8 9 10 11 12 13 14 15 16 17 18 19 20 21 22 23 24 25 26 27 28 29 30 31 32 33 34 35 36 37 38 39 40 41 42 43 44 45 46 47 48 49 50
000
ASUS44 KLZK 230105
RWRLZK

WEATHER ROUNDUP FOR ARKANSAS
NATIONAL WEATHER SERVICE LITTLE ROCK AR
800 PM CDT TUE JUL 22 2014

NOTE: "FAIR" INDICATES FEW OR NO CLOUDS BELOW 12,000 FEET WITH NO
SIGNIFICANT WEATHER AND/OR OBSTRUCTIONS TO VISIBILITY.

ARZ001-003-010-029-230200-
NORTHWEST ARKANSAS

CITY           SKY/WX    TMP DP  RH WIND       PRES   REMARKS
FAYETTEVILLE   PTCLDY    84  76  76 S3        30.07S HX  93
FORT SMITH     CLEAR     88  71  57 S5        30.03S HX  94
HARRISON       CLEAR     83  74  74 S6        30.07S HX  89
BENTONVILLE    PTCLDY    88  73  62 SW3       30.08S HX  96
ROGERS         PTCLDY    87  75  67 CALM      30.08S HX  96
SILOAM SPGS    PTCLDY    86  72  62 NW5       30.07S HX  92
HIGHFILL       PTCLDY    87  76  69 CALM      30.06F HX  97
SPRINGDALE     PTCLDY    88  73  62 W8        30.09S HX  96
$$

ARZ004-005-016-230200-
NORTH CENTRAL ARKANSAS

CITY           SKY/WX    TMP DP  RH WIND       PRES   REMARKS
BATESVILLE     PTCLDY    82  72  69 CALM      30.04S HX  87
FLIPPIN        CLEAR     84  70  61 SE3       30.05S HX  88
MTN HOME       CLEAR     82  71  69 S5        30.05R HX  86
$$

ARZ040-041-230200-
WEST CENTRAL ARKANSAS

CITY           SKY/WX    TMP DP  RH WIND       PRES   REMARKS
MENA           CLEAR     86  77  74 CALM      30.07F HX  97
MOUNT IDA      CLEAR     79  73  82 CALM      30.04F
$$

ARZ009-017-025-026-028-230200-
NORTHEAST ARKANSAS

CITY           SKY/WX    TMP DP  RH WIND       PRES   REMARKS
CORNING        LGT RAIN  82  72  69 SW5       30.04S HX  87
JONESBORO      CLEAR     82  68  62 CALM      30.04R HX  85
NEWPORT        PTCLDY    83  73  71 SE8       30.05R HX  89
WALNUT RIDGE   CLEAR     84  59  42 S5        30.03S
BLYTHEVILLE    CLEAR     83  72  69 NW6       30.04R HX  88
$$

ARZ022-023-033-042-044-230200-
CENTRAL ARKANSAS

CITY           SKY/WX    TMP DP  RH WIND       PRES   REMARKS
LITTLE ROCK    MOCLDY    83  70  64 S3        30.04S HX  87
JACKSONVILLE   CLEAR     82  73  73 S2        30.04F HX  87
SEARCY         CLEAR     83  72  69 CALM      30.05S HX  88
HOT SPRINGS    PTCLDY    83  70  64 CALM      30.05F HX  87
RUSSELLVILLE   CLEAR     82  74  76 CALM      30.04S HX  88
CLINTON        FAIR      82  75  78 CALM      30.05S HX  89
$$

ARZ036-230200-
EAST ARKANSAS

CITY           SKY/WX    TMP DP  RH WIND       PRES   REMARKS
WEST MEMPHIS   CLEAR     82  73  74 CALM      30.02S HX  87
$$

ARZ050-053-066-070-073-230200-
SOUTHWEST ARKANSAS

CITY           SKY/WX    TMP DP  RH WIND       PRES   REMARKS
ARKADELPHIA    FAIR      83  76  79 CALM      30.04F HX  91
CAMDEN         CLEAR     82  72  69 CALM      30.04S HX  87
TEXARKANA      CLEAR     83  70  64 CALM      30.05S HX  87
EL DORADO      CLEAR     80  75  84 CALM      30.04S HX  85
DE QUEEN       CLEAR     83  73  72 S3        30.02F HX  89
$$

ARZ056-057-069-230200-
SOUTHEAST ARKANSAS

CITY           SKY/WX    TMP DP  RH WIND       PRES   REMARKS
PINE BLUFF     CLEAR     83  72  69 CALM      30.04F HX  88
STUTTGART      CLEAR     82  72  69 NW5       30.04F HX  87
MONTICELLO     CLEAR     83  71  67 CALM      30.04R HX  87

$$




USA.gov is the U.S. government's official web portal to all federal, state and local government web resources and services.